EW9596 Weather Reports


time (UTC)temp
C
wind
direction
speed
KPH
gust
KPH
rain 1hr
cm
rain 24hr
cm
rain mn
cm
humidity
%
barometer
mb
20260504081526 4 244 0.0 0.0 0.00 0.00 0.00 76 1012.0
20260504081028 4 244 0.0 0.0 0.00 0.00 0.00 76 1011.9
20260504080525 4 244 0.0 0.0 0.00 0.00 0.00 76 1011.9
20260504050503 7 161 0.0 0.0 0.00 0.00 0.00 65 1012.1
20260504050001 7 161 0.0 0.0 0.00 0.00 0.00 65 1012.1
20260504045602 7 161 0.0 0.0 0.00 0.00 0.00 65 1012.1
20260504045059 7 161 0.0 0.0 0.00 0.00 0.00 65 1012.1
20260504044559 7 161 0.0 0.0 0.00 0.00 0.00 64 1012.1
20260504044059 7 161 0.0 0.0 0.00 0.00 0.00 64 1012.1
20260504043557 7 161 0.0 0.0 0.00 0.00 0.00 64 1012.1
20260504043101 8 161 0.0 0.0 0.00 0.00 0.00 63 1012.1
20260504042555 8 161 0.0 0.0 0.00 0.00 0.00 63 1012.1
20260504042055 8 161 0.0 0.0 0.00 0.00 0.00 63 1012.1
20260504041553 8 161 0.0 0.0 0.00 0.00 0.00 63 1012.0
20260504041052 8 161 0.0 0.0 0.00 0.00 0.00 63 1012.0
20260504040552 8 161 0.0 0.0 0.00 0.00 0.00 63 1012.1
20260504040118 8 161 0.0 0.0 0.00 0.00 0.00 63 1012.1
20260504035549 8 161 0.0 0.0 0.00 0.00 0.00 62 1012.1
20260504035051 8 161 0.0 0.0 0.00 0.00 0.00 62 1012.0
20260504034550 9 161 0.0 0.0 0.00 0.00 0.00 62 1012.1
20260504034049 9 161 0.0 0.0 0.00 0.00 0.00 62 1012.0
20260504033549 9 161 0.0 0.0 0.00 0.00 0.00 62 1012.1
20260504033050 9 161 0.0 0.0 0.00 0.00 0.00 62 1012.2
20260504032549 9 161 0.0 0.0 0.00 0.00 0.00 62 1012.1
20260504032049 9 161 0.0 0.0 0.00 0.00 0.00 62 1012.2
20260504031556 9 161 0.0 0.0 0.00 0.00 0.00 61 1012.2
20260504031051 10 161 0.0 0.0 0.00 0.00 0.00 61 1012.1
20260504030548 10 161 0.0 0.0 0.00 0.00 0.00 61 1012.1
20260504030049 10 161 0.0 0.0 0.00 0.00 0.00 61 1012.1
20260504025549 10 161 0.0 0.0 0.00 0.00 0.00 61 1012.1
20260504025047 10 161 0.0 0.0 0.00 0.00 0.00 61 1012.2
20260504024549 10 161 0.0 0.0 0.00 0.00 0.00 60 1012.2
20260504024048 10 161 0.0 0.0 0.00 0.00 0.00 60 1012.2
20260504023546 10 161 0.0 0.0 0.00 0.00 0.00 60 1012.2
20260504023046 10 161 0.0 3.2 0.00 0.00 0.00 60 1012.3
20260504022546 10 161 1.6 4.8 0.00 0.00 0.00 60 1012.4
20260504022045 10 171 0.0 3.2 0.00 0.00 0.00 60 1012.3
20260504021545 10 172 0.0 0.0 0.00 0.00 0.00 59 1012.3
20260504021045 10 173 0.0 0.0 0.00 0.00 0.00 59 1012.4
20260504020545 10 162 0.0 0.0 0.00 0.00 0.00 58 1012.4
20260504015548 10 215 0.0 0.0 0.00 0.00 0.00 56 1012.3
20260504015045 10 215 0.0 0.0 0.00 0.00 0.00 55 1012.3
20260504014544 10 215 0.0 0.0 0.00 0.00 0.00 54 1012.2
20260504014043 11 215 0.0 0.0 0.00 0.00 0.00 54 1012.2
20260504013544 11 215 0.0 0.0 0.00 0.00 0.00 53 1012.1
20260504013045 11 215 0.0 0.0 0.00 0.00 0.00 53 1012.1
20260504012542 11 215 0.0 0.0 0.00 0.00 0.00 52 1012.1
20260504012044 11 215 0.0 0.0 0.00 0.00 0.00 51 1012.1
20260504011543 11 215 0.0 0.0 0.00 0.00 0.00 51 1012.0
20260504011041 11 215 0.0 0.0 0.00 0.00 0.00 50 1012.0
20260504010541 11 215 0.0 0.0 0.00 0.00 0.00 50 1012.0
20260504010045 11 215 0.0 0.0 0.00 0.00 0.00 49 1012.0
20260504005541 12 215 0.0 0.0 0.00 0.00 0.00 48 1011.9
20260504005045 12 215 0.0 0.0 0.00 0.00 0.00 48 1011.9
20260504004541 12 215 0.0 0.0 0.00 0.00 0.00 48 1011.8
20260504004043 12 215 0.0 0.0 0.00 0.00 0.00 47 1011.7
20260504003542 12 215 0.0 0.0 0.00 0.00 0.00 46 1011.7
20260504003041 12 215 0.0 3.2 0.00 0.00 0.00 46 1011.7
20260504002540 12 211 0.0 3.2 0.00 0.00 0.00 45 1011.6
20260504002041 12 209 0.0 1.6 0.00 0.00 0.00 46 1011.6
20260504001548 12 209 0.0 4.8 0.00 0.00 0.00 44 1011.5
20260504001040 13 209 0.0 4.8 0.00 0.00 0.00 44 1011.4
20260504000539 13 234 0.0 3.2 0.00 0.00 0.00 43 1011.3
20260504000039 13 234 0.0 4.8 0.00 0.00 0.00 43 1011.3
20260503235538 13 234 0.0 8.0 0.00 0.00 0.00 43 1011.2
20260503235043 13 225 0.0 8.0 0.00 0.00 0.00 42 1011.2
20260503234601 13 224 0.0 11.3 0.00 0.00 0.00 41 1011.2
20260503234043 13 202 3.2 11.3 0.00 0.00 0.00 40 1011.1
20260503233541 13 257 3.2 8.0 0.00 0.00 0.00 40 1011.1
20260503233045 13 257 1.6 11.3 0.00 0.00 0.00 40 1011.1
20260503232537 13 260 4.8 11.3 0.00 0.00 0.00 39 1011.1
20260503232037 13 216 3.2 11.3 0.00 0.00 0.00 40 1011.1
20260503231537 13 230 3.2 9.7 0.00 0.00 0.00 41 1011.1
20260503231037 13 237 1.6 6.4 0.00 0.00 0.00 41 1011.1
20260503230539 13 257 0.0 6.4 0.00 0.00 0.00 41 1011.1
20260503230040 13 246 1.6 17.7 0.00 0.00 0.00 41 1011.1
20260503225536 13 240 4.8 17.7 0.00 0.00 0.00 40 1011.1
20260503225035 13 272 4.8 14.5 0.00 0.00 0.00 39 1011.1
20260503224636 13 240 4.8 12.9 0.00 0.00 0.00 39 1011.1
20260503224034 13 256 3.2 12.9 0.00 0.00 0.00 41 1011.2
20260503223534 13 216 8.0 12.9 0.00 0.00 0.00 39 1011.2
20260503223034 13 259 0.0 3.2 0.00 0.00 0.00 41 1011.2
20260503222536 13 225 0.0 6.4 0.00 0.00 0.00 40 1011.2
20260503222035 13 223 0.0 6.4 0.00 0.00 0.00 40 1011.3
20260503221536 13 177 1.6 12.9 0.00 0.00 0.00 39 1011.2
20260503221034 13 267 4.8 12.9 0.00 0.00 0.00 39 1011.2
20260503220535 13 263 3.2 11.3 0.00 0.00 0.00 39 1011.3
20260503220032 13 236 6.4 11.3 0.00 0.00 0.00 39 1011.4
20260503215531 13 218 1.6 9.7 0.00 0.00 0.00 40 1011.4
20260503215033 13 227 4.8 11.3 0.00 0.00 0.00 40 1011.5
20260503214531 13 225 1.6 11.3 0.00 0.00 0.00 40 1011.5
20260503214031 13 271 3.2 12.9 0.00 0.00 0.00 40 1011.5
20260503213531 13 224 1.6 12.9 0.00 0.00 0.00 40 1011.5
20260503213033 13 248 3.2 16.1 0.00 0.00 0.00 40 1011.5
20260503212529 13 255 6.4 16.1 0.00 0.00 0.00 40 1011.5
20260503212028 13 252 3.2 12.9 0.00 0.00 0.00 41 1011.5
20260503211529 13 293 4.8 16.1 0.00 0.00 0.00 41 1011.5
20260503211030 13 328 6.4 16.1 0.00 0.00 0.00 41 1011.6
20260503210528 13 226 4.8 17.7 0.00 0.00 0.00 40 1011.6
20260503210028 13 248 8.0 19.3 0.00 0.00 0.00 41 1011.6
20260503205528 13 251 6.4 19.3 0.00 0.00 0.00 41 1011.7
20260503205027 13 273 9.7 20.9 0.00 0.00 0.00 41 1011.8
20260503204528 13 211 9.7 27.4 0.00 0.00 0.00 41 1011.9
20260503204026 13 231 14.5 32.2 0.00 0.00 0.00 39 1011.7
20260503203527 13 265 11.3 32.2 0.00 0.00 0.00 39 1011.7
20260503203126 13 223 8.0 16.1 0.00 0.00 0.00 39 1011.7
20260503202526 13 282 6.4 17.7 0.00 0.00 0.00 39 1011.7
20260503202030 13 291 8.0 24.1 0.00 0.00 0.00 38 1011.7
20260503201527 13 276 6.4 24.1 0.00 0.00 0.00 37 1011.6
20260503201026 13 242 8.0 22.5 0.00 0.00 0.00 36 1011.8
20260503200526 14 227 9.7 22.5 0.00 0.00 0.00 35 1011.7
20260503200028 14 232 9.7 22.5 0.00 0.00 0.00 34 1011.6
20260503195525 14 239 11.3 22.5 0.00 0.00 0.00 34 1011.6
20260503195027 14 242 6.4 24.1 0.00 0.00 0.00 37 1011.7
20260503194525 13 194 9.7 20.9 0.00 0.00 0.00 35 1011.7
20260503194023 13 290 12.9 30.6 0.00 0.00 0.00 33 1011.8
20260503193525 13 220 12.9 30.6 0.00 0.00 0.00 34 1012.0
20260503193022 13 257 11.3 24.1 0.00 0.00 0.00 34 1011.9
20260503192521 13 205 9.7 25.7 0.00 0.00 0.00 34 1012.0
20260503192022 14 264 11.3 22.5 0.00 0.00 0.00 32 1012.0
20260503191528 14 317 8.0 29.0 0.00 0.00 0.00 33 1012.0
20260503191021 14 284 8.0 29.0 0.00 0.00 0.00 32 1012.0
20260503190520 14 225 16.1 25.7 0.00 0.00 0.00 32 1012.2
20260503190020 14 259 14.5 22.5 0.00 0.00 0.00 31 1012.2
20260503185519 14 218 9.7 20.9 0.00 0.00 0.00 33 1012.2
20260503185018 14 246 11.3 27.4 0.00 0.00 0.00 34 1012.2
20260503184518 14 249 12.9 25.7 0.00 0.00 0.00 32 1012.3
20260503184017 14 283 9.7 25.7 0.00 0.00 0.00 35 1012.4
20260503183515 14 246 12.9 27.4 0.00 0.00 0.00 32 1012.3
20260503183017 13 271 12.9 37.0 0.00 0.00 0.00 34 1012.4
20260503182514 13 221 14.5 37.0 0.00 0.00 0.00 31 1012.6
20260503182014 13 271 11.3 19.3 0.00 0.00 0.00 33 1012.6
20260503181513 13 305 4.8 19.3 0.00 0.00 0.00 35 1012.7
20260503181012 13 217 11.3 22.5 0.00 0.00 0.00 34 1012.6
20260503180512 13 198 11.3 22.5 0.00 0.00 0.00 35 1012.8
20260503180012 13 283 8.0 17.7 0.00 0.00 0.00 34 1012.8
20260503175508 12 283 4.8 17.7 0.00 0.00 0.00 37 1012.9
20260503175007 12 257 9.7 25.7 0.00 0.00 0.00 35 1012.9
20260503174506 12 286 8.0 25.7 0.00 0.00 0.00 35 1013.1
20260503174005 12 261 11.3 22.5 0.00 0.00 0.00 38 1013.2
20260503173504 12 244 4.8 17.7 0.00 0.00 0.00 35 1013.3
20260503173003 12 324 6.4 16.1 0.00 0.00 0.00 37 1013.5
20260503172502 12 288 4.8 16.1 0.00 0.00 0.00 38 1013.5
20260503172002 12 258 6.4 12.9 0.00 0.00 0.00 36 1013.5
20260503171502 12 265 4.8 19.3 0.00 0.00 0.00 36 1013.6
20260503171003 12 284 6.4 20.9 0.00 0.00 0.00 35 1013.6
20260503170503 12 313 6.4 20.9 0.00 0.00 0.00 39 1013.7
20260503150548 11 251 4.8 19.3 0.00 0.00 0.00 36 1014.7
20260503131028 7 273 6.4 22.5 0.00 0.00 0.00 52 1014.9
20260503130527 7 259 4.8 22.5 0.00 0.00 0.00 54 1015.0
20260503110507 3 235 1.6 6.4 0.00 0.00 0.00 78 1014.8